TimeMST,TemperatureF,Dew PointF,Humidity,Sea Level PressureIn,VisibilityMPH,Wind Direction,Wind SpeedMPH,Gust SpeedMPH,PrecipitationIn,Events,Conditions,WindDirDegrees,DateUTC
12:05 AM,6.8,-9999,N/A,30.11,10.0,SW,11.5,-,N/A,,Overcast,220,2013-01-01 07:05:00
12:25 AM,6.8,-9999,N/A,30.12,9.0,SW,11.5,-,N/A,,Overcast,220,2013-01-01 07:25:00
12:45 AM,6.8,-9999,N/A,30.12,6.0,SSW,11.5,-,N/A,Snow,Light Snow,210,2013-01-01 07:45:00
1:05 AM,6.8,-9999,N/A,30.12,6.0,SW,8.1,-,N/A,,Haze,220,2013-01-01 08:05:00
1:25 AM,6.8,-9999,N/A,30.13,8.0,SW,5.8,-,N/A,Snow,Light Snow,230,2013-01-01 08:25:00
1:45 AM,6.8,-9999,N/A,30.13,7.0,SSW,8.1,-,N/A,Snow,Light Snow,200,2013-01-01 08:45:00
2:05 AM,6.8,-9999,N/A,30.13,7.0,SSW,11.5,-,N/A,,Overcast,210,2013-01-01 09:05:00
2:25 AM,6.8,-9999,N/A,30.14,7.0,SW,8.1,-,N/A,Snow,Light Snow,220,2013-01-01 09:25:00
2:45 AM,6.8,-9999,N/A,30.15,7.0,SW,10.4,-,N/A,,Overcast,220,2013-01-01 09:45:00
3:05 AM,6.8,-9999,N/A,30.16,10.0,SW,5.8,-,N/A,,Overcast,230,2013-01-01 10:05:00
3:25 AM,6.8,-9999,N/A,30.15,10.0,SW,9.2,-,N/A,,Overcast,220,2013-01-01 10:25:00
3:45 AM,6.8,-9999,N/A,30.16,10.0,SW,9.2,-,N/A,,Overcast,220,2013-01-01 10:45:00
4:05 AM,6.8,-9999,N/A,30.16,10.0,SW,8.1,-,N/A,,Overcast,220,2013-01-01 11:05:00
4:25 AM,6.8,-9999,N/A,30.16,10.0,SW,6.9,-,N/A,Snow,Light Snow,220,2013-01-01 11:25:00
4:45 AM,6.8,-9999,N/A,30.16,10.0,SW,6.9,-,N/A,,Overcast,220,2013-01-01 11:45:00
5:05 AM,5.0,-9999,N/A,30.16,10.0,SW,5.8,-,N/A,,Overcast,220,2013-01-01 12:05:00
5:25 AM,5.0,-9999,N/A,30.17,10.0,SW,4.6,-,N/A,,Mostly Cloudy,220,2013-01-01 12:25:00
6:05 AM,5.0,-9999,N/A,30.17,10.0,SW,4.6,-,N/A,,Overcast,220,2013-01-01 13:05:00
6:25 AM,5.0,-9999,N/A,30.18,10.0,Calm,Calm,-,N/A,,Overcast,0,2013-01-01 13:25:00
6:45 AM,5.0,-9999,N/A,30.18,10.0,Calm,Calm,-,N/A,,Overcast,0,2013-01-01 13:45:00
7:05 AM,3.2,-9999,N/A,30.18,10.0,Calm,Calm,-,N/A,,Overcast,0,2013-01-01 14:05:00
7:25 AM,1.4,-9999,N/A,30.18,10.0,Calm,Calm,-,N/A,,Mostly Cloudy,0,2013-01-01 14:25:00
7:45 AM,-0.4,-9999,N/A,30.18,10.0,Calm,Calm,-,N/A,,Partly Cloudy,0,2013-01-01 14:45:00
8:05 AM,-0.4,-9999,N/A,30.19,10.0,Calm,Calm,-,N/A,,Scattered Clouds,0,2013-01-01 15:05:00
8:25 AM,-4.0,-9999,N/A,30.19,10.0,Calm,Calm,-,N/A,,Scattered Clouds,0,2013-01-01 15:25:00
8:45 AM,-2.2,-9999,N/A,30.20,10.0,Calm,Calm,-,N/A,,Mostly Cloudy,0,2013-01-01 15:45:00
9:05 AM,-2.2,-9999,N/A,30.21,10.0,North,3.5,-,N/A,,Scattered Clouds,350,2013-01-01 16:05:00
9:25 AM,-0.4,-9999,N/A,30.22,10.0,Calm,Calm,-,N/A,Snow,Light Snow,0,2013-01-01 16:25:00
9:45 AM,1.4,-9999,N/A,30.23,10.0,South,3.5,-,N/A,,Mostly Cloudy,190,2013-01-01 16:45:00
10:05 AM,6.8,-9999,N/A,30.24,10.0,Calm,Calm,-,N/A,,Overcast,0,2013-01-01 17:05:00
10:25 AM,8.6,-9999,N/A,30.24,10.0,SSW,9.2,-,N/A,,Overcast,200,2013-01-01 17:25:00
10:45 AM,8.6,-9999,N/A,30.23,10.0,SSW,8.1,-,N/A,,Overcast,210,2013-01-01 17:45:00
11:05 AM,8.6,-9999,N/A,30.22,10.0,SW,10.4,-,N/A,,Overcast,220,2013-01-01 18:05:00
11:25 AM,10.4,-9999,N/A,30.22,10.0,SW,11.5,-,N/A,,Mostly Cloudy,220,2013-01-01 18:25:00
11:45 AM,10.4,-9999,N/A,30.21,10.0,SW,10.4,-,N/A,Snow,Light Snow,220,2013-01-01 18:45:00
12:05 PM,10.4,-9999,N/A,30.19,10.0,SW,12.7,-,N/A,,Mostly Cloudy,220,2013-01-01 19:05:00
12:25 PM,10.4,-9999,N/A,30.18,7.0,SSW,8.1,-,N/A,Snow,Light Snow,200,2013-01-01 19:25:00
12:45 PM,10.4,-9999,N/A,30.18,8.0,SW,11.5,-,N/A,,Partly Cloudy,220,2013-01-01 19:45:00
1:05 PM,10.4,-9999,N/A,30.19,6.0,SSW,10.4,-,N/A,,Haze,210,2013-01-01 20:05:00
1:25 PM,10.4,-9999,N/A,30.18,5.0,SSW,11.5,-,N/A,,Haze,200,2013-01-01 20:25:00
2:05 PM,10.4,-9999,N/A,30.17,6.0,SSW,12.7,-,N/A,Snow,Light Snow,210,2013-01-01 21:05:00
2:25 PM,10.4,-9999,N/A,30.17,7.0,SSW,11.5,-,N/A,,Mostly Cloudy,210,2013-01-01 21:25:00
3:05 PM,12.2,-9999,N/A,30.19,10.0,SSW,6.9,-,N/A,,Overcast,200,2013-01-01 22:05:00
3:25 PM,12.2,-9999,N/A,30.20,10.0,SSW,9.2,-,N/A,,Mostly Cloudy,200,2013-01-01 22:25:00
3:45 PM,10.4,-9999,N/A,30.21,7.0,SSW,10.4,-,N/A,Snow,Light Snow,210,2013-01-01 22:45:00
4:05 PM,12.2,-9999,N/A,30.21,9.0,SW,9.2,-,N/A,,Overcast,220,2013-01-01 23:05:00
4:25 PM,10.4,-9999,N/A,30.21,5.0,SW,8.1,-,N/A,,Haze,220,2013-01-01 23:25:00
4:45 PM,10.4,-9999,N/A,30.21,10.0,SW,5.8,-,N/A,Snow,Light Snow,230,2013-01-01 23:45:00
5:05 PM,8.6,-9999,N/A,30.22,10.0,SW,4.6,-,N/A,,Mostly Cloudy,230,2013-01-02 00:05:00
5:25 PM,8.6,-9999,N/A,30.22,10.0,SW,5.8,-,N/A,,Partly Cloudy,230,2013-01-02 00:25:00
5:45 PM,5.0,-9999,N/A,30.23,10.0,SSW,6.9,-,N/A,,Scattered Clouds,200,2013-01-02 00:45:00
6:05 PM,6.8,-9999,N/A,30.24,10.0,SSW,4.6,-,N/A,,Scattered Clouds,210,2013-01-02 01:05:00
6:25 PM,5.0,-9999,N/A,30.24,10.0,SW,4.6,-,N/A,,Mostly Cloudy,220,2013-01-02 01:25:00
6:45 PM,1.4,-9999,N/A,30.24,10.0,South,5.8,-,N/A,,Scattered Clouds,170,2013-01-02 01:45:00
7:05 PM,1.4,-9999,N/A,30.25,10.0,SW,3.5,-,N/A,,Clear,220,2013-01-02 02:05:00
7:25 PM,-2.2,-9999,N/A,30.25,10.0,South,3.5,-,N/A,,Clear,180,2013-01-02 02:25:00
7:45 PM,-2.2,-9999,N/A,30.25,10.0,SSE,3.5,-,N/A,,Partly Cloudy,150,2013-01-02 02:45:00
8:05 PM,-2.2,-9999,N/A,30.26,10.0,Calm,Calm,-,N/A,,Mostly Cloudy,0,2013-01-02 03:05:00
8:25 PM,-2.2,-9999,N/A,30.26,10.0,Calm,Calm,-,N/A,,Mostly Cloudy,0,2013-01-02 03:25:00
8:45 PM,-4.0,-9999,N/A,30.26,10.0,Calm,Calm,-,N/A,,Mostly Cloudy,0,2013-01-02 03:45:00
9:05 PM,-4.0,-9999,N/A,30.26,10.0,South,3.5,-,N/A,,Overcast,180,2013-01-02 04:05:00
9:25 PM,-2.2,-9999,N/A,30.27,10.0,SSE,3.5,-,N/A,,Overcast,160,2013-01-02 04:25:00
9:45 PM,-2.2,-9999,N/A,30.27,10.0,Calm,Calm,-,N/A,,Overcast,0,2013-01-02 04:45:00
10:05 PM,-0.4,-9999,N/A,30.27,10.0,Calm,Calm,-,N/A,,Overcast,0,2013-01-02 05:05:00
10:25 PM,-0.4,-9999,N/A,30.27,10.0,Calm,Calm,-,N/A,,Overcast,0,2013-01-02 05:25:00
10:45 PM,-0.4,-9999,N/A,30.27,9.0,Calm,Calm,-,N/A,,Overcast,0,2013-01-02 05:45:00
11:05 PM,-0.4,-9999,N/A,30.28,10.0,Calm,Calm,-,N/A,,Overcast,0,2013-01-02 06:05:00
11:25 PM,-0.4,-9999,N/A,30.28,8.0,Calm,Calm,-,N/A,,Overcast,0,2013-01-02 06:25:00
11:45 PM,-0.4,-9999,N/A,30.27,9.0,Calm,Calm,-,N/A,,Overcast,0,2013-01-02 06:45:00